Hurghada, Egypt

11:15 AM EET on March 27, 2017 (GMT +0200)
Hurghada International

Weather History for HEGN - August, 2013

Change the Weather History Date:

Thursday, August 1, 2013

  Actual Average Record
Temperature  
Mean Temperature 93 °F -  
Max Temperature 104 °F 95 °F 106 °F (2014)
Min Temperature 82 °F 81 °F 81 °F (2012)
Cooling Degree Days 28    
Growing Degree Days 43 (Base 50)    
Moisture  
Dew Point 54 °F    
Average Humidity 26    
Maximum Humidity 37    
Minimum Humidity 17    
Precipitation  
Precipitation 0.00 in - - ()
Sea Level Pressure  
Sea Level Pressure 29.69 in    
Wind  
Wind Speed 6 mph ()    
Max Wind Speed 14 mph    
Max Gust Speed -    
Visibility 6.0 miles    
Events      
Averages and records for this station are not official NWS values.
T = Trace of Precipitation, MM = Missing Value Source: Averaged Metar Reports

Daily Weather History Graph

Daily Weather History Graph

Search for Another Location

Airport or City:

Trip Planner

Search our weather history database for the weather conditions in past years. The results will help you decide how hot, cold, wet, or windy it might be!

Date:

Astronomy

Aug. 01, 2013 Rise Set
Actual Time 5:09 AM EET 6:33 PM EET
Civil Twilight 4:44 AM EET 6:58 PM EET
Nautical Twilight 4:14 AM EET 7:28 PM EET
Astronomical Twilight 3:42 AM EET 7:59 PM EET
Moon 12:32 AM EET (8/1) 2:21 PM EET (8/1)
Length of Visible Light 14h 14m
Length of Day
13h 24m
Waning Crescent, 25% of the Moon is Illuminated
Aug 1
Waning Crescent
Aug 6
New
Aug 14
First Quarter
Aug 21
Full
Aug 28
Last Quarter

Hourly Weather History & Observations

Time (EET) Temp. Heat Index Dew Point Humidity Pressure Visibility Wind Dir Wind Speed Gust Speed Precip Events Conditions
12:00 AM 87.8 °F - 48.2 °F 25% 29.65 in - WNW 8.1 mph - N/A   Clear
1:00 AM 86.0 °F - 48.2 °F 27% 29.65 in - WNW 5.8 mph - N/A   Clear
2:00 AM 85 °F - 48 °F 18% 29.66 in 6 mi WNW 4.6 mph - -  
2:00 AM 86.0 °F - 48.2 °F 27% 29.65 in - WNW 4.6 mph - N/A   Clear
3:00 AM 84.2 °F - 46.4 °F 27% 29.65 in - NW 9.2 mph - N/A   Clear
4:00 AM 84.2 °F - 48.2 °F 29% 29.65 in - NW 10.4 mph - N/A   Clear
5:00 AM 84.2 °F - 50.0 °F 30% 29.68 in - WNW 13.8 mph - N/A   Clear
6:00 AM 84.2 °F 82.8 °F 53.6 °F 35% 29.68 in - NW 13.8 mph - N/A   Clear
7:00 AM 89.6 °F - 51.8 °F 27% 29.71 in - NW 6.9 mph - N/A   Clear
8:00 AM 92 °F - 53 °F 18% 29.72 in 6 mi North 9.2 mph - -  
8:00 AM 91.4 °F 89.1 °F 53.6 °F 28% 29.71 in - North 9.2 mph - N/A   Clear
9:00 AM 95.0 °F 93.7 °F 57.2 °F 28% 29.71 in - North 4.6 mph - N/A   Clear
10:00 AM 95.0 °F 95.2 °F 60.8 °F 32% 29.71 in - NNE 10.4 mph - N/A   Clear
11:00 AM 96.8 °F 100.7 °F 66.2 °F 37% 29.71 in - ENE 10.4 mph - N/A   Clear
12:00 PM 100.4 °F 102.4 °F 62.6 °F 29% 29.71 in - ENE 6.9 mph - N/A   Clear
1:00 PM 104.0 °F 106.6 °F 62.6 °F 26% 29.68 in - ESE 5.8 mph - N/A   Clear
2:00 PM 101 °F - 63 °F 20% 29.69 in 6 mi ESE 6.9 mph - -  
2:00 PM 102.2 °F 104.2 °F 62.6 °F 27% 29.68 in - ESE 6.9 mph - N/A   Clear
3:00 PM 102.2 °F 103.6 °F 60.8 °F 26% 29.68 in - ESE 5.8 mph - N/A   Clear
4:00 PM 104.0 °F - 51.8 °F 17% 29.65 in - ESE 3.5 mph - N/A   Clear
5:00 PM 102.2 °F 101.4 °F 57.2 °F 22% 29.68 in - SE 3.5 mph - N/A   Clear
6:00 PM 95.0 °F 93.0 °F 55.4 °F 26% 29.68 in - SSE 3.5 mph - N/A   Clear
7:00 PM 93.2 °F 91.9 °F 57.2 °F 30% 29.68 in - SSE 4.6 mph - N/A   Clear
8:00 PM 91.4 °F - 50.0 °F 24% 29.71 in - SSW 3.5 mph - N/A   Clear
9:00 PM 89.6 °F - 48.2 °F 24% 29.71 in - NE 3.5 mph - N/A   Clear
10:00 PM 87.8 °F - 48.2 °F 25% 29.71 in - West 6.9 mph - N/A   Clear
11:00 PM 84.2 °F - 48.2 °F 29% 29.71 in - WSW 4.6 mph - N/A   Clear